sat.trackr.live / text

‹ back to catalog

MAKERSAT 0

NORAD 43016 · 2017-073D

PAYLOAD ACTIVE UNKNOWN

§ Identity

Operator
Country
US
Launch date
2017-11-18
Launch site
AFWTR
Launch vehicle
Mass (kg)
RCS (m²)

Purposes: tech_demo

External: N2YO · Heavens-Above · Gunter

§ Orbital elements

Epoch: 2026-09-17T15:04:55.063776Z

Period
93.78 min
Inclination
97.4452°
Eccentricity
0.0097352
Mean motion
15.35579152 rev/d
Perigee alt
392.6 km
Apogee alt
525.8 km
Semi-major
6,837.3 km
B*
4.3528e-4
RAAN
144.0022°
Arg perigee
303.9900°
Mean anomaly
55.2122°
Rev number
48,063

§ Raw data

MAKERSAT 01 43016U 17073D   26260.62841509  .00017546  00000+0  43528-3 0  99902 43016  97.4452 144.0022 0097352 303.9900  55.2122 15.35579152480631

JSON: /api/v1/satellites/43016 · /tle

For live sub-satellite position, see the globe view (requires WebGL).

§ Visibility from observer

Set your observer location to see the next 7 days of passes ≥ 10°. The values pass through the URL so the page stays shareable.

No JS? Fill the form by hand. The geolocation button needs JavaScript.